Weather History for LEVT - August, 2013

Change the Weather History Date:

Friday, August 2, 2013

  Actual Average Record
Temperature  
Mean Temperature 78 °F -  
Max Temperature 93 °F 79 °F 102 °F (2003)
Min Temperature 64 °F 54 °F 42 °F (2002)
Cooling Degree Days 14    
Growing Degree Days 28 (Base 50)    
Moisture  
Dew Point 56 °F    
Average Humidity 53    
Maximum Humidity 88    
Minimum Humidity 21    
Precipitation  
Precipitation 0.00 in - - ()
Sea Level Pressure  
Sea Level Pressure 29.95 in    
Wind  
Wind Speed 6 mph ()    
Max Wind Speed 16 mph    
Max Gust Speed 21 mph    
Visibility 6.2 miles    
Events      
Averages and records for this station are not official NWS values.
T = Trace of Precipitation, MM = Missing Value Source: Averaged Metar Reports

Daily Weather History Graph

Daily Weather History Graph

Search for Another Location

Airport or City:

Trip Planner

Search our weather history database for the weather conditions in past years. The results will help you decide how hot, cold, wet, or windy it might be!

Date:

Astronomy

Aug. 02, 2013 Rise Set
Actual Time 7:03 AM CEST 9:30 PM CEST
Civil Twilight 6:31 AM CEST 10:02 PM CEST
Nautical Twilight 5:51 AM CEST 10:42 PM CEST
Astronomical Twilight 5:06 AM CEST 11:26 PM CEST
Moon 3:11 AM CEST 6:17 PM CEST
Length of Visible Light 15h 31m
Length of Day
14h 27m
Waning Crescent, 17% of the Moon is Illuminated
Aug 2
Waning Crescent
Aug 6
New
Aug 14
First Quarter
Aug 21
Full
Aug 28
Last Quarter

Hourly Weather History & Observations

Time (CEST) Temp. Heat Index Dew Point Humidity Pressure Visibility Wind Dir Wind Speed Gust Speed Precip Events Conditions
12:00 AM 82.4 °F - 50.0 °F 32% 29.89 in - SE 8.1 mph - N/A   Clear
12:30 AM 80.6 °F - 50.0 °F 34% 29.89 in - East 6.9 mph - N/A   Clear
1:00 AM 75.2 °F - 50.0 °F 41% 29.89 in - ENE 8.1 mph - N/A   Clear
1:30 AM 75.2 °F - 50.0 °F 41% 29.89 in - ENE 8.1 mph - N/A   Clear
2:00 AM 73.4 °F - 50.0 °F 44% 29.89 in - Variable 2.3 mph - N/A   Clear
2:30 AM 73.4 °F - 51.8 °F 47% 29.92 in - Variable 1.2 mph - N/A   Clear
3:00 AM 73.4 °F - 51.8 °F 47% 29.89 in - NNE 4.6 mph - N/A   Clear
3:30 AM 69.8 °F - 51.8 °F 53% 29.89 in - NE 5.8 mph - N/A   Clear
4:00 AM 71.6 °F - 51.8 °F 50% 29.89 in - NE 3.5 mph - N/A   Clear
4:30 AM 68.0 °F - 53.6 °F 60% 29.89 in - Calm Calm - N/A   Clear
5:00 AM 68.0 °F - 53.6 °F 60% 29.89 in - Variable 2.3 mph - N/A   Clear
5:30 AM 68.0 °F - 53.6 °F 60% 29.89 in - Variable 2.3 mph - N/A   Clear
6:00 AM 68.0 °F - 53.6 °F 60% 29.89 in - Variable 1.2 mph - N/A   Clear
6:30 AM 66.2 °F - 53.6 °F 64% 29.92 in - Calm Calm - N/A   Clear
7:00 AM 64.4 °F - 55.4 °F 73% 29.92 in - Variable 2.3 mph - N/A   Clear
7:30 AM 66.2 °F - 53.6 °F 64% 29.92 in - Calm Calm - N/A   Clear
8:00 AM 64.4 °F - 55.4 °F 73% 29.92 in - Calm Calm - N/A   Clear
8:30 AM 69.8 °F - 55.4 °F 60% 29.95 in - Variable 2.3 mph - N/A   Clear
9:00 AM 75.2 °F - 55.4 °F 50% 29.95 in - Variable 1.2 mph - N/A   Clear
9:30 AM 75.2 °F - 53.6 °F 47% 29.95 in - SSE 2.3 mph - N/A   Clear
10:00 AM 77.0 °F - 55.4 °F 47% 29.95 in - South 11.5 mph - N/A   Clear
10:30 AM 78.8 °F - 59.0 °F 51% 29.95 in - SW 2.3 mph - N/A   Clear
11:00 AM 80.6 °F 80.8 °F 57.2 °F 45% 29.95 in - SSE 9.2 mph 20.7 mph N/A   Clear
11:30 AM 82.4 °F 82.0 °F 57.2 °F 42% 29.95 in - South 9.2 mph - N/A   Clear
12:00 PM 82.4 °F 82.0 °F 57.2 °F 42% 29.95 in - South 8.1 mph - N/A   Clear
12:30 PM 84.2 °F 83.5 °F 57.2 °F 40% 29.95 in - SW 8.1 mph - N/A   Clear
1:00 PM 86.0 °F 84.5 °F 55.4 °F 35% 29.95 in - SSW 9.2 mph - N/A   Clear
1:30 PM 86.0 °F 84.2 °F 53.6 °F 33% 29.95 in - SSW 10.4 mph - N/A   Clear
2:00 PM 87.8 °F 85.7 °F 53.6 °F 31% 29.95 in - SSW 11.5 mph - N/A   Clear
2:30 PM 87.8 °F 86.1 °F 55.4 °F 33% 29.95 in 6.2 mi SSW 10.4 mph - N/A   Partly Cloudy
3:00 PM 89.6 °F 87.7 °F 55.4 °F 31% 29.92 in 6.2 mi SW 10.4 mph - N/A   Partly Cloudy
3:30 PM 89.6 °F 87.7 °F 55.4 °F 31% 29.92 in 6.2 mi SSW 10.4 mph - N/A   Partly Cloudy
4:00 PM 91.4 °F 89.1 °F 53.6 °F 28% 29.92 in 6.2 mi SW 8.1 mph - N/A   Partly Cloudy
4:30 PM 93.2 °F - 50.0 °F 23% 29.92 in 6.2 mi West 10.4 mph - N/A   Partly Cloudy
5:00 PM 93.2 °F - 48.2 °F 21% 29.92 in 6.2 mi SW 13.8 mph - N/A   Partly Cloudy
5:30 PM 91.4 °F 89.1 °F 53.6 °F 28% 29.92 in 6.2 mi NW 9.2 mph - N/A   Partly Cloudy
6:00 PM 82.4 °F 83.4 °F 62.6 °F 51% 29.95 in 6.2 mi North 16.1 mph - N/A   Partly Cloudy
6:30 PM 78.8 °F - 64.4 °F 61% 29.98 in 6.2 mi North 11.5 mph - N/A   Partly Cloudy
7:00 PM 75.2 °F - 64.4 °F 69% 30.01 in 6.2 mi NNE 12.7 mph - N/A   Partly Cloudy
7:30 PM 73.4 °F - 62.6 °F 69% 30.01 in 6.2 mi NNE 12.7 mph - N/A   Scattered Clouds
8:00 PM 71.6 °F - 62.6 °F 73% 30.04 in 6.2 mi NNE 13.8 mph - N/A   Mostly Cloudy
8:30 PM 69.8 °F - 62.6 °F 78% 30.04 in 6.2 mi North 11.5 mph - N/A   Mostly Cloudy
9:00 PM 68.0 °F - 62.6 °F 83% 30.06 in 6.2 mi North 11.5 mph - N/A   Mostly Cloudy
9:30 PM 66.2 °F - 60.8 °F 83% 30.06 in 6.2 mi NNE 11.5 mph - N/A   Mostly Cloudy
10:00 PM 66.2 °F - 60.8 °F 83% 30.09 in 6.2 mi NNE 10.4 mph - N/A   Mostly Cloudy
10:30 PM 66.2 °F - 60.8 °F 83% 30.09 in 6.2 mi NNE 11.5 mph - N/A   Scattered Clouds
11:00 PM 66.2 °F - 60.8 °F 83% 30.12 in 6.2 mi NNE 9.2 mph - N/A   Scattered Clouds
11:30 PM 64.4 °F - 60.8 °F 88% 30.12 in 6.2 mi NNE 6.9 mph - N/A   Scattered Clouds